TimeAKST,TemperatureF,Dew PointF,Humidity,Sea Level PressureIn,VisibilityMPH,Wind Direction,Wind SpeedMPH,Gust SpeedMPH,PrecipitationIn,Events,Conditions,WindDirDegrees,DateUTC
12:16 AM,35.6,33.8,93,30.36,10.0,Calm,Calm,-,N/A,,Overcast,0,2014-02-01 09:16:00
12:36 AM,35.6,33.8,93,30.36,10.0,Calm,Calm,-,N/A,,Overcast,0,2014-02-01 09:36:00
12:56 AM,35.6,33.8,93,30.37,10.0,North,3.5,-,N/A,,Overcast,10,2014-02-01 09:56:00
1:16 AM,37.4,33.8,87,30.37,10.0,WSW,9.2,-,N/A,,Overcast,250,2014-02-01 10:16:00
1:36 AM,37.4,33.8,87,30.37,10.0,Calm,Calm,-,N/A,,Overcast,0,2014-02-01 10:36:00
1:56 AM,37.4,32.0,81,30.38,10.0,West,6.9,-,N/A,,Overcast,260,2014-02-01 10:56:00
2:16 AM,37.4,33.8,87,30.38,10.0,WSW,8.1,-,N/A,,Overcast,240,2014-02-01 11:16:00
2:36 AM,37.4,33.8,87,30.38,10.0,WSW,11.5,-,N/A,,Overcast,240,2014-02-01 11:36:00
2:56 AM,39.2,32.0,75,30.39,10.0,West,8.1,-,N/A,,Overcast,260,2014-02-01 11:56:00
3:16 AM,37.4,33.8,87,30.39,10.0,West,5.8,-,N/A,,Overcast,270,2014-02-01 12:16:00
3:36 AM,37.4,30.2,75,30.39,10.0,West,6.9,-,N/A,,Overcast,270,2014-02-01 12:36:00
3:56 AM,37.4,30.2,75,30.40,10.0,WNW,5.8,-,N/A,,Overcast,290,2014-02-01 12:56:00
4:16 AM,37.4,30.2,75,30.39,10.0,West,5.8,-,N/A,,Overcast,270,2014-02-01 13:16:00
4:36 AM,37.4,32.0,81,30.40,10.0,WSW,8.1,-,N/A,,Overcast,250,2014-02-01 13:36:00
4:56 AM,37.4,32.0,81,30.40,10.0,West,9.2,-,N/A,,Overcast,260,2014-02-01 13:56:00
5:16 AM,37.4,30.2,75,30.40,10.0,West,8.1,-,N/A,,Overcast,270,2014-02-01 14:16:00
5:36 AM,37.4,30.2,75,30.40,10.0,West,10.4,16.1,N/A,,Overcast,260,2014-02-01 14:36:00
5:56 AM,37.4,30.2,75,30.41,10.0,WSW,9.2,-,N/A,,Overcast,250,2014-02-01 14:56:00
6:16 AM,37.4,30.2,75,30.41,10.0,West,11.5,-,N/A,,Overcast,260,2014-02-01 15:16:00
6:36 AM,37.4,30.2,75,30.41,10.0,West,11.5,17.3,N/A,,Overcast,260,2014-02-01 15:36:00
6:56 AM,37.4,30.2,75,30.41,10.0,West,10.4,-,N/A,,Scattered Clouds,260,2014-02-01 15:56:00
7:16 AM,37.4,28.4,70,30.41,10.0,West,11.5,16.1,N/A,,Clear,270,2014-02-01 16:16:00
7:36 AM,37.4,28.4,70,30.42,10.0,West,12.7,20.7,N/A,,Scattered Clouds,260,2014-02-01 16:36:00
7:56 AM,37.4,28.4,70,30.42,10.0,West,10.4,-,N/A,,Overcast,260,2014-02-01 16:56:00
8:16 AM,37.4,30.2,75,30.43,10.0,West,8.1,18.4,N/A,,Overcast,270,2014-02-01 17:16:00
8:36 AM,37.4,30.2,75,30.43,10.0,West,11.5,-,N/A,,Mostly Cloudy,260,2014-02-01 17:36:00
8:56 AM,35.6,28.4,75,30.43,10.0,West,9.2,-,N/A,,Mostly Cloudy,270,2014-02-01 17:56:00
9:16 AM,35.6,28.4,75,30.44,10.0,West,10.4,-,N/A,,Overcast,270,2014-02-01 18:16:00
9:36 AM,35.6,28.4,75,30.44,10.0,West,10.4,-,N/A,,Overcast,260,2014-02-01 18:36:00
9:56 AM,35.6,28.4,75,30.44,10.0,West,12.7,18.4,N/A,,Overcast,260,2014-02-01 18:56:00
10:16 AM,35.6,26.6,70,30.44,10.0,West,11.5,-,N/A,,Overcast,270,2014-02-01 19:16:00
10:36 AM,35.6,28.4,75,30.45,10.0,West,8.1,-,N/A,,Mostly Cloudy,280,2014-02-01 19:36:00
10:56 AM,35.6,26.6,70,30.45,10.0,West,9.2,-,N/A,,Scattered Clouds,260,2014-02-01 19:56:00
11:16 AM,35.6,28.4,75,30.45,10.0,West,10.4,-,N/A,,Scattered Clouds,280,2014-02-01 20:16:00
11:36 AM,35.6,26.6,70,30.46,10.0,WSW,9.2,-,N/A,,Mostly Cloudy,250,2014-02-01 20:36:00
11:56 AM,35.6,26.6,70,30.46,10.0,West,10.4,16.1,N/A,,Overcast,270,2014-02-01 20:56:00
12:16 PM,35.6,26.6,70,30.47,10.0,West,8.1,17.3,N/A,,Overcast,270,2014-02-01 21:16:00
12:36 PM,35.6,26.6,70,30.47,10.0,WSW,13.8,19.6,N/A,,Overcast,240,2014-02-01 21:36:00
12:56 PM,35.6,26.6,70,30.47,10.0,West,10.4,-,N/A,,Overcast,260,2014-02-01 21:56:00
1:16 PM,35.6,26.6,70,30.47,10.0,West,10.4,-,N/A,,Overcast,270,2014-02-01 22:16:00
1:36 PM,35.6,26.6,70,30.47,10.0,West,10.4,-,N/A,,Mostly Cloudy,270,2014-02-01 22:36:00
1:56 PM,35.6,24.8,65,30.46,10.0,West,11.5,-,N/A,,Mostly Cloudy,270,2014-02-01 22:56:00
2:16 PM,35.6,24.8,65,30.46,10.0,West,11.5,-,N/A,,Partly Cloudy,270,2014-02-01 23:16:00
2:36 PM,35.6,26.6,70,30.46,10.0,West,12.7,-,N/A,,Partly Cloudy,270,2014-02-01 23:36:00
2:56 PM,35.6,26.6,70,30.46,10.0,West,10.4,-,N/A,,Clear,260,2014-02-01 23:56:00
3:16 PM,35.6,24.8,65,30.46,10.0,West,11.5,18.4,N/A,,Clear,260,2014-02-02 00:16:00
3:36 PM,35.6,24.8,65,30.45,10.0,West,12.7,18.4,N/A,,Clear,270,2014-02-02 00:36:00
3:56 PM,35.6,24.8,65,30.45,10.0,West,8.1,-,N/A,,Clear,280,2014-02-02 00:56:00
4:16 PM,35.6,26.6,70,30.45,10.0,WSW,8.1,-,N/A,,Scattered Clouds,250,2014-02-02 01:16:00
4:36 PM,35.6,26.6,70,30.45,10.0,West,6.9,-,N/A,,Scattered Clouds,280,2014-02-02 01:36:00
4:56 PM,35.6,26.6,70,30.45,10.0,West,6.9,-,N/A,,Partly Cloudy,270,2014-02-02 01:56:00
5:16 PM,33.8,26.6,75,30.45,10.0,WSW,15.0,-,N/A,,Clear,250,2014-02-02 02:16:00
5:36 PM,35.6,26.6,70,30.45,10.0,WSW,16.1,20.7,N/A,,Partly Cloudy,250,2014-02-02 02:36:00
5:56 PM,35.6,24.8,65,30.45,10.0,West,11.5,16.1,N/A,,Scattered Clouds,260,2014-02-02 02:56:00
6:16 PM,35.6,24.8,65,30.45,10.0,WSW,11.5,19.6,N/A,,Partly Cloudy,250,2014-02-02 03:16:00
6:36 PM,33.8,26.6,75,30.45,10.0,WSW,12.7,17.3,N/A,,Mostly Cloudy,250,2014-02-02 03:36:00
6:56 PM,33.8,26.6,75,30.45,10.0,West,13.8,23.0,N/A,,Scattered Clouds,260,2014-02-02 03:56:00
7:16 PM,33.8,26.6,75,30.45,10.0,West,16.1,21.9,N/A,,Mostly Cloudy,260,2014-02-02 04:16:00
7:36 PM,33.8,26.6,75,30.45,10.0,West,11.5,21.9,N/A,,Mostly Cloudy,270,2014-02-02 04:36:00
7:56 PM,33.8,24.8,70,30.45,10.0,WSW,16.1,20.7,N/A,,Mostly Cloudy,250,2014-02-02 04:56:00
8:16 PM,33.8,26.6,75,30.45,10.0,West,13.8,20.7,N/A,,Overcast,260,2014-02-02 05:16:00
8:36 PM,33.8,24.8,70,30.45,10.0,West,12.7,18.4,N/A,,Partly Cloudy,270,2014-02-02 05:36:00
8:56 PM,32.0,24.8,75,30.46,10.0,West,8.1,-,N/A,,Clear,260,2014-02-02 05:56:00
9:16 PM,32.0,24.8,75,30.45,10.0,West,11.5,18.4,N/A,,Partly Cloudy,270,2014-02-02 06:16:00
9:36 PM,32.0,26.6,80,30.45,10.0,WSW,15.0,-,N/A,,Scattered Clouds,250,2014-02-02 06:36:00
9:56 PM,32.0,24.8,75,30.45,10.0,WSW,9.2,16.1,N/A,,Mostly Cloudy,250,2014-02-02 06:56:00
10:16 PM,30.2,24.8,80,30.45,10.0,West,9.2,-,N/A,,Scattered Clouds,280,2014-02-02 07:16:00
10:36 PM,30.2,23.0,75,30.45,10.0,West,9.2,-,N/A,,Partly Cloudy,270,2014-02-02 07:36:00
10:56 PM,32.0,24.8,75,30.45,10.0,West,11.5,17.3,N/A,,Scattered Clouds,260,2014-02-02 07:56:00
11:16 PM,30.2,24.8,80,30.45,10.0,West,10.4,-,N/A,,Scattered Clouds,260,2014-02-02 08:16:00
11:36 PM,30.2,24.8,80,30.44,10.0,West,10.4,-,N/A,,Clear,270,2014-02-02 08:36:00
11:56 PM,30.2,24.8,80,30.44,10.0,West,9.2,-,N/A,,Clear,260,2014-02-02 08:56:00